Dewpoint
2 -1 -6 -9 -10 -11 -12 -14 -13 -13 -12 -11 -11 -11 -11 -10 -8 -8 -10 -10 -9 -9 -10 -9 -9 -9 -9 -9 -9 -9 -9 -9 -9 -9 -10 -10 -9 -10 -11 -10 -11 -12
-2 -2 -5 -8 -10 -11 -11 -13 -13 -12 -12 -10 -10 -10 -10 -11 -11 -10 -10 -10 -10 -10 -10 -9 -9 -9 -9 -10 -10 -10 -11 -10 -10 -11 -10 -11 -11 -11 -12 -13 -13 -13
-2 -2 -4 -5 -8 -11 -10 -12 -12 -10 -10 -10 -9 -10 -10 -10 -10 -11 -11 -11 -11 -10 -10 -10 -10 -10 -10 -11 -11 -10 -11 -11 -12 -12 -12 -13 -13 -13 -13 -13 -13 -13
-2 -3 -1 1 -2 -6 -8 -10 -11 -10 -9 -9 -9 -9 -9 -10 -10 -10 -10 -10 -11 -11 -11 -11 -11 -11 -11 -11 -11 -11 -11 -11 -10 -10 -10 -10 -11 -10 -10 -9 -9 -10
-1 -0 2 2 -1 -3 -5 -8 -10 -10 -9 -8 -8 -9 -8 -9 -9 -9 -10 -10 -10 -10 -10 -11 -11 -11 -11 -10 -9 -9 -8 -8 -8 -8 -8 -8 -8 -8 -7 -7 -7 -7
1 3 4 2 -1 -1 -2 -5 -6 -7 -9 -8 -8 -8 -8 -9 -9 -9 -9 -9 -9 -9 -9 -9 -9 -9 -10 -9 -8 -8 -8 -7 -7 -7 -7 -7 -7 -7 -7 -7 -6 -6
2 4 5 4 2 3 2 -1 -2 -2 -4 -4 -4 -6 -8 -8 -8 -8 -8 -8 -8 -8 -8 -8 -8 -8 -8 -8 -7 -7 -7 -7 -7 -7 -7 -6 -6 -6 -7 -7 -7 -6
3 3 4 4 3 4 4 -1 -4 -0 1 1 0 -1 -3 -5 -6 -6 -7 -7 -7 -7 -7 -7 -6 -6 -6 -6 -7 -7 -7 -7 -7 -6 -6 -6 -6 -6 -6 -6 -6 -6
3 3 4 4 3 4 4 -0 -4 0 4 3 4 3 3 2 0 -1 -1 -1 -2 -3 -3 -4 -3 -3 -3 -3 -4 -5 -5 -5 -5 -5 -6 -6 -6 -5 -5 -6 -5 -5
2 3 3 4 3 4 3 -1 -4 1 5 5 5 5 5 5 4 4 3 4 3 3 3 2 2 1 1 1 1 -0 -1 -2 -2 -2 -3 -4 -5 -5 -5 -5 -5 -4
0 1 3 4 3 2 1 -2 -3 0 4 5 4 5 5 5 5 5 5 5 4 4 4 5 5 4 4 4 4 4 3 3 2 2 1 1 -1 -2 -3 -3 -3 -3
3 2 4 4 3 2 1 -0 -1 0 2 3 2 4 6 5 5 5 5 5 5 4 5 5 6 5 5 5 5 5 5 5 5 5 4 4 3 3 2 1 0 -1
6 6 6 5 4 3 2 3 3 2 3 3 1 3 6 6 6 6 6 5 5 5 5 6 6 6 6 5 5 6 6 6 6 5 6 6 5 5 5 4 4 3
7 7 7 6 5 4 4 5 5 5 5 5 3 4 6 6 6 6 6 6 6 6 6 6 7 7 6 6 6 6 6 6 5 5 5 5 6 6 5 5 5 5
5 5 5 5 5 4 5 6 6 6 6 6 5 6 6 7 6 6 6 6 5 5 5 6 7 7 6 6 6 7 6 6 6 5 5 5 6 6 6 6 6 5
6 5 5 5 5 5 5 6 6 6 6 6 6 6 6 6 6 6 6 5 4 4 4 6 7 6 6 6 6 7 7 7 7 6 6 6 6 6 7 6 6 6
7 7 6 6 6 5 5 6 6 6 6 6 6 6 6 5 5 5 4 4 4 5 6 7 7 6 6 6 6 7 7 7 7 7 7 6 6 6 6 6 6 6
6 7 7 7 7 6 6 7 7 6 6 6 6 6 6 5 4 5 4 4 5 6 6 7 7 7 7 7 7 8 8 8 7 7 7 7 7 7 7 7 7 6
5 6 7 7 6 6 6 6 6 6 6 6 6 6 6 6 6 5 5 5 6 6 7 7 6 6 5 4 4 5 6 7 8 8 8 8 8 8 8 7 7 6
3 4 4 4 4 4 4 4 4 4 4 5 5 6 6 5 5 5 5 5 6 6 6 5 4 3 1 -1 -2 -1 0 3 5 6 7 7 8 8 7 7 7 7
1 1 1 1 2 3 3 3 3 4 4 4 5 5 4 3 3 4 4 5 4 4 3 2 1 1 -1 -2 -3 -3 -3 -2 -1 -0 1 3 5 7 7 7 7 7
-2 -2 -2 -2 0 2 2 1 1 2 3 3 3 3 2 2 2 3 4 3 3 2 0 -1 -1 -1 -2 -2 -2 -2 -2 -1 -1 -1 -1 1 4 6 6 6 7 6
-4 -3 -3 -5 -4 -2 -1 -1 -1 -0 -0 0 0 0 0 0 1 1 1 0 -0 -2 -4 -4 -4 -3 -3 -3 -2 -1 0 1 1 1 1 1 3 4 5 5 6 6
-5 -5 -5 -5 -5 -4 -3 -3 -3 -3 -5 -5 -5 -5 -5 -5 -5 -5 -5 -5 -6 -5 -5 -6 -5 -2 -1 -2 -2 -1 1 2 2 1 1 0 1 2 3 4 5 6
-5 -5 -5 -4 -3 -3 -3 -3 -3 -5 -9 -12 -11 -11 -13 -13 -13 -14 -12 -11 -10 -8 -6 -6 -5 -3 -1 -2 -1 0 1 2 2 2 2 1 1 1 3 4 5 5
-5 -4 -4 -3 -3 -3 -3 -3 -3 -5 -10 -12 -12 -12 -12 -11 -11 -12 -12 -13 -14 -14 -13 -12 -10 -6 -4 -2 -0 0 1 1 2 3 3 3 3 3 4 4 5 4
Wind_Speed
15 10 9 12 11 8 6 6 6 6 6 6 6 6 7 8 9 9 9 9 9 9 9 9 8 7 7 7 8 8 7 6 6 6 5 5 5 4 4 4 3 3
16 13 13 16 14 11 8 7 8 7 7 7 7 8 8 9 9 9 9 8 8 8 8 8 7 7 7 8 8 8 7 7 6 6 6 5 5 5 5 5 4 4
19 17 17 18 15 12 11 10 10 9 8 8 9 9 9 9 9 9 8 8 8 8 8 8 8 8 8 9 9 9 9 9 8 8 8 7 7 7 7 6 6 5
23 20 19 17 13 11 12 12 12 11 10 10 9 9 10 10 10 10 9 9 9 9 9 9 9 10 10 10 10 10 10 10 9 9 9 9 8 8 8 8 7 6
26 23 21 17 12 11 12 15 15 14 13 11 10 10 10 10 10 10 9 9 9 9 9 9 10 10 11 11 11 10 10 9 8 8 8 7 7 6 6 6 6 6
27 25 23 18 15 13 13 14 15 14 14 12 11 11 11 11 10 9 9 8 8 8 8 8 8 9 9 9 9 8 8 7 6 5 5 4 4 4 3 3 3 3
28 26 23 19 18 15 12 14 15 15 14 12 11 12 11 11 11 9 9 8 7 7 6 6 6 6 6 6 6 7 6 6 5 4 3 2 2 1 1 1 0 0
28 26 23 20 19 16 13 16 18 15 14 13 12 11 11 11 10 9 9 8 8 7 7 6 6 5 5 5 5 5 5 5 5 5 4 4 3 4 4 3 3 3
29 26 24 21 20 18 16 17 18 15 14 15 14 13 13 11 10 9 9 8 8 8 8 7 7 7 7 7 6 6 6 6 6 6 6 6 6 6 7 6 5 5
28 26 25 23 22 21 19 20 20 16 15 15 15 16 17 15 13 12 10 9 9 8 9 9 8 8 8 8 7 7 7 7 7 7 7 8 8 8 9 8 7 6
28 27 26 25 23 22 22 25 25 21 18 17 16 17 18 16 15 14 13 12 11 10 10 11 11 10 10 9 9 8 8 8 8 9 9 9 9 10 10 10 9 8
27 25 25 25 24 23 23 25 26 24 22 21 19 19 20 19 17 16 16 16 15 14 14 14 13 13 13 12 11 11 10 10 9 10 10 10 10 10 10 10 10 10
24 22 22 24 24 22 23 25 25 25 25 26 25 23 23 22 21 21 19 19 20 20 19 17 16 16 16 15 15 14 14 13 13 13 13 14 13 13 12 12 11 11
22 21 21 23 23 23 25 27 27 27 27 29 29 27 25 25 24 24 22 20 21 22 22 21 20 19 18 17 17 17 18 17 17 16 16 17 18 17 16 15 14 14
20 21 22 23 24 25 27 29 31 30 29 31 32 29 27 26 25 23 22 21 21 21 22 23 22 20 21 21 20 20 21 21 21 20 19 19 20 21 20 19 18 17
19 22 23 24 26 27 27 29 31 30 26 28 30 27 25 25 25 23 23 23 21 20 21 21 20 20 21 21 20 21 22 23 23 23 22 21 20 22 23 22 21 20
17 20 22 22 23 25 25 26 28 27 25 26 29 25 20 20 23 24 24 22 20 19 18 17 17 17 16 16 17 20 22 23 24 23 22 20 20 21 23 23 22 22
15 16 18 18 19 19 21 22 24 23 23 23 24 21 14 12 16 19 19 18 17 15 13 12 12 12 11 12 14 16 18 20 20 19 18 18 19 19 20 21 22 23
14 15 15 15 15 15 17 18 19 18 18 17 15 13 9 9 11 12 12 12 11 10 9 10 10 10 10 11 12 13 15 16 17 17 17 17 16 16 17 18 20 23
12 14 13 13 13 14 15 16 15 15 14 13 12 10 9 9 8 8 8 8 7 8 9 9 10 11 11 12 12 13 14 15 16 17 18 18 17 16 16 16 17 20
12 13 12 12 13 14 14 14 14 14 13 12 12 11 9 9 9 9 9 9 9 9 10 11 11 12 12 12 11 12 12 13 14 16 17 18 18 17 16 15 15 18
12 13 13 13 13 14 14 13 13 13 13 12 12 11 11 10 10 11 11 11 11 12 13 13 13 13 13 12 11 12 12 12 13 13 14 15 16 17 16 15 15 17
12 14 14 13 14 14 14 14 14 13 13 13 12 12 12 12 12 13 13 13 13 13 13 13 12 12 12 11 11 11 11 12 12 12 12 12 13 14 14 13 14 16
12 13 14 13 14 15 15 15 14 13 13 12 12 12 11 12 13 13 14 14 13 13 13 12 11 12 12 12 12 12 12 12 12 13 13 12 11 11 11 11 12 15
12 12 12 12 13 15 16 15 15 14 12 10 10 10 10 10 10 10 11 12 13 14 14 14 14 14 14 14 13 13 13 12 13 13 13 12 12 11 10 11 12 16
12 13 13 13 13 14 14 14 14 14 13 10 8 9 9 9 9 9 10 11 12 14 15 15 16 16 15 15 14 14 14 13 13 13 13 12 11 10 10 12 14 16
Wind_Direction
228 219 212 221 208 186 189 198 192 184 183 185 180 173 160 154 158 155 148 141 133 129 126 123 120 114 108 101 96 96 98 103 109 109 108 111 115 116 111 107 106 103
216 204 211 221 208 186 184 194 195 187 183 185 183 178 168 159 157 154 154 152 146 142 138 133 130 123 115 106 99 95 95 97 100 99 99 101 101 101 100 97 99 100
214 212 220 219 207 193 188 194 199 197 194 195 192 188 182 174 169 162 158 154 149 148 143 135 131 126 116 107 101 98 98 97 95 94 93 93 90 89 90 88 87 90
220 218 221 216 209 205 198 197 201 201 201 202 198 196 193 188 184 177 167 159 151 146 140 133 130 126 121 115 110 107 105 102 100 99 96 94 92 87 83 79 77 81
220 218 218 210 204 213 209 202 203 203 202 203 202 200 200 198 195 188 180 171 160 153 147 140 134 130 126 122 118 115 111 108 104 102 99 97 94 88 83 79 78 80
214 216 217 209 201 210 214 207 208 209 204 203 205 204 204 203 202 196 190 184 176 170 165 159 151 144 138 134 131 128 124 122 120 115 112 107 103 100 94 89 84 82
210 213 215 213 206 207 215 212 211 213 209 207 209 209 208 206 204 201 197 196 193 188 182 179 174 167 164 160 155 154 155 155 157 160 158 151 152 167 176 190 201 214
209 211 212 213 208 207 217 216 210 210 214 215 213 216 217 213 209 207 207 208 207 208 209 205 202 199 198 200 196 195 195 193 196 201 208 210 211 223 230 230 236 249
210 212 212 211 208 208 216 216 211 214 220 221 222 228 232 230 228 224 223 225 223 226 231 230 229 227 226 228 225 226 231 232 232 231 234 236 234 239 243 241 242 245
212 214 213 213 212 211 211 212 215 221 224 225 230 236 238 240 241 238 238 240 239 241 244 246 248 248 250 252 249 246 245 247 252 251 249 248 246 246 248 250 255 257
214 215 216 217 218 219 216 214 220 226 226 225 226 229 234 237 239 241 243 244 244 247 250 251 254 257 261 264 263 263 259 259 261 263 264 263 258 256 255 256 260 264
214 215 217 219 222 227 225 221 225 227 225 225 224 226 231 232 233 239 242 244 249 252 255 256 256 261 269 271 268 266 265 266 265 267 271 271 268 267 266 266 267 268
209 211 214 217 222 229 232 232 232 228 224 226 229 233 234 230 231 237 240 243 248 251 253 256 258 261 266 268 269 269 268 268 269 270 271 270 270 269 269 271 273 272
210 212 214 218 224 230 232 233 235 233 228 228 232 235 234 232 234 240 246 247 247 251 254 255 256 259 263 262 261 264 266 267 270 274 276 273 271 269 268 269 270 272
219 221 223 226 231 233 233 233 236 236 230 230 233 232 232 235 236 241 250 251 247 250 257 258 257 263 271 269 262 260 262 263 267 273 279 278 272 268 267 267 267 267
223 225 230 233 232 232 235 237 237 234 231 234 239 235 231 235 240 245 252 253 250 253 260 262 263 267 272 271 264 261 261 263 267 272 276 276 271 265 262 263 265 264
222 223 228 230 229 228 232 237 239 239 239 243 251 251 242 240 246 251 253 254 255 258 258 259 263 266 268 267 265 265 264 264 267 270 271 269 267 263 260 260 262 262
224 222 221 221 223 225 230 236 239 242 242 244 252 259 258 246 245 248 250 252 253 255 253 254 259 264 265 266 267 267 264 263 263 263 262 262 263 264 263 262 262 261
221 223 220 217 219 220 223 227 228 230 234 236 240 243 234 221 227 237 244 248 250 252 252 251 256 263 269 272 270 268 265 264 263 263 263 262 262 264 264 265 265 263
202 206 206 204 204 204 205 210 214 218 222 222 219 213 208 210 220 231 239 244 248 251 252 254 259 266 273 276 276 274 271 268 268 268 267 267 268 267 264 261 263 264
195 194 194 196 198 201 204 207 212 217 218 219 219 218 222 226 226 227 230 236 244 252 258 262 266 270 273 275 277 278 279 279 279 278 276 275 274 274 270 263 261 264
202 200 202 205 207 208 211 213 218 221 222 226 229 231 238 241 238 238 241 246 253 260 264 265 267 270 273 273 275 278 283 289 292 293 290 284 277 275 273 268 265 263
211 214 216 219 220 218 218 221 224 227 230 233 236 238 244 248 250 252 255 257 260 262 263 264 266 267 270 273 276 278 284 291 297 300 300 292 282 276 272 269 269 263
215 222 226 226 223 217 215 219 225 235 244 244 240 241 245 249 253 256 258 260 259 258 259 262 263 265 270 275 278 280 284 288 295 302 306 305 302 295 284 277 270 260
218 223 227 228 226 222 222 225 231 239 244 240 234 236 241 248 253 258 262 263 262 261 261 262 264 266 270 273 278 282 286 289 292 298 304 309 312 308 297 284 269 257
218 221 223 225 227 229 232 235 237 238 239 238 239 241 246 256 264 270 275 274 271 269 269 269 269 270 271 275 280 284 288 291 292 293 298 303 304 300 289 277 266 257
Height
1529 1530 1531 1531 1532 1532 1532 1532 1532 1532 1532 1532 1532 1533 1533 1534 1535 1536 1536 1536 1536 1536 1536 1537 1538 1539 1539 1539 1539 1539 1540 1541 1542 1543 1543 1543 1544 1544 1544 1544 1544 1545
1527 1528 1530 1531 1532 1532 1532 1533 1533 1533 1533 1534 1533 1533 1534 1535 1536 1536 1537 1537 1537 1537 1537 1538 1538 1539 1540 1540 1540 1540 1540 1541 1542 1543 1544 1544 1545 1545 1545 1545 1545 1545
1526 1527 1529 1530 1531 1532 1532 1533 1534 1534 1534 1535 1535 1535 1535 1536 1536 1537 1537 1538 1538 1538 1538 1538 1539 1539 1540 1540 1540 1540 1541 1542 1543 1544 1545 1545 1546 1546 1546 1546 1546 1546
1525 1527 1528 1530 1531 1532 1533 1534 1534 1535 1535 1536 1536 1537 1537 1537 1537 1537 1538 1538 1538 1539 1539 1539 1539 1540 1540 1540 1541 1541 1541 1542 1543 1544 1545 1546 1546 1547 1547 1547 1547 1547
1524 1526 1528 1529 1530 1532 1533 1534 1535 1535 1535 1536 1537 1538 1538 1538 1538 1538 1538 1539 1539 1539 1540 1540 1540 1540 1540 1541 1541 1541 1542 1543 1544 1545 1546 1546 1547 1547 1548 1548 1548 1548
1522 1525 1527 1528 1529 1531 1533 1534 1535 1536 1536 1537 1537 1538 1539 1539 1539 1539 1539 1540 1540 1540 1541 1541 1541 1541 1541 1542 1542 1542 1542 1543 1544 1545 1546 1547 1547 1548 1548 1548 1548 1548
1521 1524 1526 1528 1528 1530 1532 1533 1534 1536 1536 1537 1537 1538 1539 1539 1540 1540 1540 1541 1541 1541 1542 1542 1543 1543 1543 1543 1543 1543 1543 1544 1544 1545 1546 1547 1547 1548 1548 1548 1548 1548
1520 1522 1524 1527 1528 1529 1531 1532 1534 1535 1536 1537 1537 1538 1539 1540 1541 1541 1541 1541 1542 1542 1543 1543 1544 1544 1544 1544 1544 1544 1544 1544 1545 1546 1546 1547 1547 1547 1548 1548 1548 1548
1519 1521 1523 1524 1526 1528 1530 1531 1533 1534 1535 1535 1536 1538 1539 1541 1542 1542 1542 1542 1542 1543 1543 1544 1544 1544 1544 1544 1544 1545 1545 1545 1546 1546 1547 1547 1547 1547 1547 1547 1547 1547
1518 1520 1521 1522 1524 1526 1528 1530 1532 1533 1533 1533 1534 1536 1538 1540 1541 1541 1542 1542 1542 1542 1543 1544 1544 1544 1544 1544 1544 1545 1545 1545 1546 1546 1547 1547 1547 1547 1547 1547 1547 1547
1516 1517 1519 1520 1522 1524 1526 1528 1530 1531 1532 1532 1532 1533 1536 1538 1539 1540 1540 1540 1541 1542 1542 1543 1543 1544 1544 1544 1544 1545 1545 1545 1546 1546 1547 1547 1548 1547 1547 1547 1547 1547
1513 1515 1518 1520 1522 1523 1525 1527 1528 1530 1531 1531 1530 1531 1533 1535 1536 1537 1538 1539 1539 1540 1541 1542 1542 1543 1543 1544 1544 1544 1544 1544 1545 1545 1546 1547 1547 1547 1547 1547 1546 1546
1512 1514 1517 1519 1521 1522 1524 1525 1527 1529 1529 1529 1529 1529 1530 1532 1533 1534 1536 1537 1538 1539 1540 1540 1541 1541 1542 1542 1543 1543 1543 1543 1544 1544 1545 1545 1546 1546 1546 1546 1546 1546
1511 1514 1516 1517 1519 1520 1521 1523 1524 1525 1526 1527 1527 1527 1528 1529 1530 1532 1534 1534 1535 1536 1538 1539 1539 1540 1540 1541 1541 1541 1541 1542 1542 1543 1543 1544 1544 1544 1545 1544 1544 1544
1512 1513 1515 1516 1517 1517 1518 1520 1521 1522 1523 1524 1524 1525 1527 1528 1529 1531 1532 1533 1533 1534 1536 1537 1537 1538 1538 1538 1539 1539 1539 1540 1540 1540 1541 1541 1542 1542 1543 1543 1543 1543
1512 1513 1513 1514 1515 1516 1517 1518 1518 1519 1522 1522 1521 1523 1526 1527 1528 1530 1531 1530 1530 1531 1533 1534 1535 1535 1536 1536 1536 1536 1537 1537 1537 1538 1538 1539 1539 1540 1540 1540 1541 1541
1511 1512 1512 1512 1513 1515 1516 1517 1517 1519 1521 1521 1520 1521 1524 1526 1527 1527 1527 1528 1528 1529 1529 1530 1532 1533 1533 1533 1533 1533 1534 1534 1534 1535 1535 1536 1537 1537 1538 1538 1538 1538
1510 1510 1511 1512 1512 1514 1515 1516 1517 1518 1519 1520 1520 1520 1522 1523 1524 1525 1525 1527 1527 1528 1528 1528 1530 1530 1531 1531 1531 1531 1531 1531 1531 1532 1532 1533 1533 1534 1534 1535 1535 1535
1508 1509 1510 1511 1512 1513 1514 1515 1515 1516 1517 1518 1519 1519 1520 1522 1522 1523 1525 1526 1526 1527 1527 1527 1528 1529 1529 1529 1529 1529 1529 1529 1529 1529 1529 1529 1530 1530 1531 1531 1532 1532
1508 1509 1510 1511 1512 1512 1513 1513 1514 1515 1515 1517 1518 1519 1520 1521 1522 1522 1523 1524 1525 1525 1526 1526 1527 1527 1527 1527 1527 1527 1527 1527 1527 1527 1526 1527 1527 1527 1528 1528 1528 1529
1508 1508 1509 1510 1511 1512 1512 1512 1513 1514 1515 1516 1517 1518 1519 1520 1521 1522 1522 1523 1523 1524 1524 1525 1525 1526 1526 1526 1526 1525 1525 1525 1525 1525 1524 1524 1524 1524 1525 1525 1526 1526
1507 1508 1508 1509 1510 1511 1512 1512 1513 1514 1514 1515 1516 1517 1518 1519 1520 1520 1521 1521 1522 1522 1523 1523 1524 1524 1524 1524 1524 1524 1524 1523 1523 1523 1522 1522 1522 1522 1522 1522 1523 1524
1506 1507 1508 1508 1509 1510 1511 1512 1513 1513 1514 1514 1515 1516 1517 1517 1518 1518 1519 1520 1520 1521 1521 1522 1522 1522 1523 1523 1523 1522 1522 1522 1521 1521 1521 1521 1520 1520 1520 1520 1521 1522
1506 1506 1507 1508 1508 1509 1510 1511 1512 1513 1513 1514 1514 1515 1515 1516 1516 1517 1517 1518 1519 1519 1520 1520 1520 1521 1521 1521 1521 1521 1521 1520 1520 1520 1519 1519 1519 1519 1519 1519 1520 1520
1505 1506 1507 1507 1508 1508 1509 1510 1511 1512 1512 1512 1513 1513 1514 1514 1515 1515 1516 1516 1517 1517 1518 1518 1518 1518 1519 1519 1519 1519 1519 1519 1518 1518 1518 1517 1517 1517 1517 1518 1518 1519
1505 1505 1506 1506 1507 1507 1508 1508 1509 1510 1511 1511 1512 1512 1513 1513 1514 1514 1514 1515 1515 1515 1515 1515 1516 1516 1516 1516 1516 1517 1517 1517 1517 1516 1516 1516 1516 1516 1516 1517 1517 1518